User: anonymous   Login
Location: Unspecified
(0.0000°N, 0.0000°E)
Time: 23:31:20
(UTC+00:00)
Language:

TBA - TO BE ASSIGNED - Orbit

View from above orbital plane
View from above orbital plane
View from above satellite
View from above satellite

Ground track
Ground track

The orbit is defined by the following mean orbital elements,

1 67821U          26145.44509029 +.00000000 +00000-0 +62734-3 0 00003
2 67821  43.0041 193.5020 0001656 254.3261 105.7408 15.27592101    07
Epoch (UTC): 25 May 2026 10:40:55
Eccentricity: 0.0001656
inclination: 43.0041°
perigee height: 482 km
apogee height: 484 km
right ascension of ascending node: 193.5020°
argument of perigee: 254.3261°
revolutions per day: 15.27592101
mean anomaly at epoch: 105.7408°

The dashed part of the orbit path shows where the satellite is in the earth's shadow,  

DLR